{"data":{"norad_id":67320,"intl_designator":"2026-002R","name":"STARLINK-36500","alt_names":[],"object_type":"PAYLOAD","status":"ACTIVE","operator":null,"country":"US","launch_date":"2026-01-04","launch_site_code":"AFETR","launch_vehicle":null,"mission":null,"orbit_class":"UNKNOWN","rcs_meters":null,"size_class":null,"mass_kg":null,"dimensions":null,"purposes":["comms"],"wikipedia_slug":null,"has_3d_model":false,"image_url":null,"decayed_at":null,"tle_current":{"epoch":"2026-05-24T23:48:08.584128Z","epoch_age_seconds":85930,"freshness":"FRESH","line1":"1 67320U 26002R   26144.99176602  .00014123  00000+0  52173-3 0  9996","line2":"2 67320  42.9986 254.7588 0001394 277.6300  82.4394 15.27581736 22806","mean_motion":15.27581736,"eccentricity":0.0001394,"inclination_deg":42.9986,"raan_deg":254.7588,"arg_perigee_deg":277.63,"mean_anomaly_deg":82.4394,"bstar":0.00052173,"rev_number":2280,"period_min":94.266641585456,"perigee_km":482.0874492189,"apogee_km":484.00034645321,"semimajor_km":6861.1808978361,"source":"CELESTRAK","updated_at":"2026-05-25T13:38:21.517902Z"}}}